This demonstration page uses our WeatherBlox Daily Observations layout. Learn more.

Left ArrowRight Arrow

39.51506, -84.39828

Hourly Observations for April 30, 2015

Temp ( °F °C ) Dew Point ( °F °C ) Humidity (%) Winds ( mph kmh ) Pressure ( in mb ) Visibility ( mi km ) Precip ( " mm )
12:15 am 00:15 Cloudy 60 15.3 43 6.1 54 54 N N/A 29.8 1009 10 16.0934 N/A
12:35 am 00:35 Cloudy 60 15.3 43 6.2 55 55 N N/A 29.8 1009 10 16.0934 N/A
12:55 am 00:55 Cloudy 58 14.2 41 5.1 55 55 N N/A 29.8 1009 10 16.0934 N/A
1:15 am 01:15 Cloudy 57 13.8 42 5.8 59 59 N N/A 29.8 1009 10 16.0934 N/A
1:35 am 01:35 Partly Cloudy 57 13.8 40 4.6 54 54 N N/A 29.8 1009 10 16.0934 N/A
1:55 am 01:55 Mostly Cloudy 57 13.8 40 4.6 54 54 NNW 5 7 29.8 1009 10 16.0934 N/A
2:15 am 02:15 Mostly Cloudy 57 13.8 40 4.6 54 54 NNW 5 7 29.8 1009 10 16.0934 N/A
2:35 am 02:35 Cloudy 57 13.8 40 4.5 54 54 NNW 5 7 29.77 1008 10 16.0934 N/A
2:55 am 02:55 Cloudy 57 13.8 41 5 56 56 N 3 6 29.77 1008 10 16.0934 N/A
3:15 am 03:15 Cloudy 57 13.8 42 5.6 58 58 N N/A 29.77 1008 10 16.0934 N/A
3:35 am 03:35 Cloudy 55 13 42 5.5 61 61 N 3 6 29.8 1009 10 16.0934 N/A
3:55 am 03:55 Cloudy 55 13 42 5.5 61 61 NNE 5 7 29.8 1009 10 16.0934 N/A
4:15 am 04:15 Cloudy 55 12.5 41 5.1 61 61 N 3 6 29.8 1009 10 16.0934 N/A
4:35 am 04:35 Cloudy 55 12.5 42 5.3 62 62 NNE 7 11 29.8 1009 10 16.0934 N/A
4:55 am 04:55 Cloudy 55 12.5 41 5.2 61 61 N 8 13 29.8 1009 10 16.0934 N/A
5:15 am 05:15 Cloudy 55 12.5 42 5.6 63 63 N 9 15 29.8 1009 10 16.0934 N/A
5:35 am 05:35 Mostly Cloudy 55 12.5 43 6.2 66 66 NNE 6 9 29.8 1009 10 16.0934 N/A
5:55 am 05:55 Cloudy 55 12.5 44 6.7 68 68 NNE 7 11 29.8 1009 10 16.0934 N/A
6:15 am 06:15 Mostly Cloudy 52 11 43 6 72 72 NNE 7 11 29.8 1009 10 16.0934 N/A
6:35 am 06:35 Partly Cloudy 52 11 43 6.2 73 73 N 6 9 29.83 1010 10 16.0934 N/A
6:55 am 06:55 Sunny 49 9.6 42 5.3 75 75 N 5 7 29.83 1010 10 16.0934 N/A
7:15 am 07:15 Sunny 51 10.3 43 6 75 75 N 3 6 29.83 1010 10 16.0934 N/A
7:35 am 07:35 Sunny 51 10.3 43 6 75 75 NNE 6 9 29.83 1010 10 16.0934 N/A
7:55 am 07:55 Partly Cloudy 52 11 43 6 72 72 NNE 8 13 29.83 1010 10 16.0934 N/A
8:15 am 08:15 Sunny 53 11.9 44 6.6 70 70 N 8 13 29.85 1011 10 16.0934 N/A
8:35 am 08:35 Sunny 55 12.5 44 6.8 68 68 N 13 20 29.85 1011 10 16.0934 N/A
8:55 am 08:55 Sunny 55 12.5 44 6.6 68 68 N 12 19 29.85 1011 10 16.0934 N/A
9:15 am 09:15 Sunny 55 12.5 43 6.3 66 66 NNE 9 15 29.85 1011 10 16.0934 N/A
9:35 am 09:35 Sunny 55 12.5 43 6 65 65 N 8 13 29.85 1011 10 16.0934 N/A
9:55 am 09:55 Partly Cloudy 57 13.8 44 6.7 62 62 NNE 9 15 29.83 1010 10 16.0934 N/A
10:15 am 10:15 Partly Cloudy 57 13.8 43 6.3 61 61 NE 9 15 29.83 1010 10 16.0934 N/A
10:35 am 10:35 Sunny 58 14.2 42 5.6 56 56 NE 9 15 29.83 1010 10 16.0934 N/A
10:55 am 10:55 Sunny 60 15.3 43 6.2 55 55 NE 14 22 29.83 1010 10 16.0934 N/A
11:15 am 11:15 Sunny 60 15.3 41 5.1 51 51 N 12 19 29.83 1010 10 16.0934 N/A
11:35 am 11:35 Sunny 61 15.9 41 4.8 48 48 NNE 13 20 29.83 1010 10 16.0934 N/A
11:55 am 11:55 Sunny 61 16 38 3.4 43 43 NNE 13 20 29.83 1010 10 16.0934 N/A
12:15 pm 12:15 Partly Cloudy 61 15.9 35 1.9 39 39 NNW 9 15 29.83 1010 10 16.0934 N/A
12:35 pm 12:35 Partly Cloudy 62 16.6 37 2.7 40 40 NNE 14 22 29.83 1010 10 16.0934 N/A
12:55 pm 12:55 Partly Cloudy 62 16.7 34 1.1 35 35 NE 8 13 29.83 1010 10 16.0934 N/A
1:15 pm 13:15 Partly Cloudy 62 16.9 35 1.7 36 36 N 15 24 29.83 1010 10 16.0934 N/A
1:35 pm 13:35 Partly Cloudy 62 16.8 33 0.7 34 34 NNE 12 19 29.83 1010 10 16.0934 N/A
1:55 pm 13:55 Mostly Cloudy 62 16.9 34 1 34 34 NE 10 17 29.83 1010 10 16.0934 N/A
2:20 pm 14:20 Mostly Cloudy 61 16 32 0.2 34 34 N 12 19 29.83 1010 10 16.0934 N/A
2:35 pm 14:35 Mostly Cloudy 61 16 34 1.2 37 37 NNE 14 22 29.83 1010 10 16.0934 N/A
2:55 pm 14:55 Cloudy 61 16 32 0.1 34 34 N 9 15 29.83 1010 10 16.0934 N/A
3:15 pm 15:15 Cloudy 55 12.5 38 3.1 53 53 NW 21 33 29.88 1012 10 16.0934 N/A
3:35 pm 15:35 Cloudy with Light Rain 49 9.7 40 4.5 70 70 NW 22 35 29.88 1012 10 16.0934 N/A
3:55 pm 15:55 Cloudy 49 9.6 41 5.2 74 74 NW 20 31 29.88 1012 7 11.26538 N/A
4:15 pm 16:15 Cloudy 49 9.6 41 5.2 74 74 WNW 14 22 29.88 1012 10 16.0934 N/A
4:35 pm 16:35 Cloudy with Drizzle 50 10.2 42 5.7 74 74 WNW 14 22 29.88 1012 10 16.0934 N/A
4:55 pm 16:55 Cloudy 52 11 42 5.5 69 69 WNW 10 17 29.88 1012 10 16.0934 N/A
5:15 pm 17:15 Cloudy 55 12.5 41 5.2 61 61 WNW 7 11 29.88 1012 10 16.0934 N/A
5:35 pm 17:35 Mostly Cloudy 57 13.7 42 5.4 58 58 NW 8 13 29.88 1012 10 16.0934 N/A
5:55 pm 17:55 Partly Cloudy 57 13.8 38 3.5 50 50 NNW 13 20 29.88 1012 10 16.0934 N/A
6:15 pm 18:15 Sunny 59 15 39 3.8 47 47 NNW 12 19 29.85 1011 10 16.0934 N/A
6:35 pm 18:35 Sunny 59 14.8 39 3.8 48 48 NNW 10 17 29.85 1011 10 16.0934 N/A
6:55 pm 18:55 Partly Cloudy 60 15.3 39 3.7 46 46 NNW 8 13 29.85 1011 10 16.0934 N/A
7:15 pm 19:15 Mostly Cloudy with Light Rain 57 13.8 37 2.5 47 47 N 7 11 29.91 1013 10 16.0934 N/A
7:35 pm 19:35 Cloudy 57 13.8 35 1.9 45 45 NNE 7 11 29.91 1013 10 16.0934 N/A
8:15 pm 20:15 Sunny 55 13 37 2.5 49 49 NNE 9 15 29.91 1013 10 16.0934 N/A
8:35 pm 20:35 Partly Cloudy 55 12.9 37 2.6 50 50 NNE 7 11 29.94 1014 10 16.0934 N/A
8:55 pm 20:55 Clear 55 12.5 38 3.1 53 53 NNE 6 9 29.94 1014 10 16.0934 N/A
9:15 pm 21:15 Clear 55 12.5 38 3.4 54 54 N 5 7 29.94 1014 10 16.0934 N/A
9:35 pm 21:35 Clear 55 12.5 39 4 56 56 N N/A 29.97 1015 10 16.0934 N/A
9:55 pm 21:55 Clear 50 9.9 39 3.9 67 67 N N/A 29.97 1015 10 16.0934 N/A
10:15 pm 22:15 Clear 49 9.6 43 6 78 78 WNW 3 6 29.97 1015 10 16.0934 N/A
10:35 pm 22:35 Clear 47 8.2 41 5.1 81 81 NNW 5 7 29.97 1015 10 16.0934 N/A
10:55 pm 22:55 Clear 49 9.6 40 4.7 72 72 NNW 5 7 30 1016 10 16.0934 N/A
11:15 pm 23:15 Clear 49 9.6 40 4.2 69 69 N 5 7 30 1016 10 16.0934 N/A
11:35 pm 23:35 Partly Cloudy 49 9.6 40 4.6 71 71 N 5 7 30 1016 10 16.0934 N/A
11:55 pm 23:55 Mostly Cloudy 49 9.6 40 4.5 71 71 N N/A 30 1016 10 16.0934 N/A

Powered by AerisWeather